weerbeeld Almere Meer informatie weerbeeld Almere


Onweer radar Meer informatie blitzortung!


Regen radar Meer informatie rain snow radar


Apparatuur in gebruik:

Davis VP2

Meteohub

ALIX 1D

Web-Oke


Het weer levert geen direct gevaar op.    Er zijn geen waarschuwingen afgegeven.

Weather Underground Historische gegevens

Dagelijkse Samenvatting oktober 18, 2018 Eenheden:  Metrisch    Engels   Beide
« Vorige Dag
Volgende Dag »
Dagelijkse Wekelijkse Maandelijkse Jaarlijkse Aangepaste
  Huidig: Hoog: Laag: Gemiddeld:
Temperatuur: -9.9 °C -17.8 °C -11.6 °C -10.9 °C
Dauwpunt: -10.7 °C -17.8 °C -12.3 °C -11.7 °C
Vochtigheid: 91 % Humidity % 89 % 90 %
Wind snelheid: 20.8 km/h 0 km/h 0 km/h 2.4 km/h
Windvlaag: 20.8 km/h 0 km/h - -
Wind:NNW - - SW
Luchtdruk: 34625.2 hPa 0 hPa 0 hPa -
Neerslag: 0 mm      
Historical Graphs
 
 
Tabel voor oktober 18, 2018
Tijd Temperatuur Dauwpunt Luchtdruk Wind Wind snelheid Windvlaag Vochtigheid Regenval per uur
-17.8 °C -17.8 °C 0 hPa Calm     Humidity % 0 mm
00:02 -10.7 °C -11.6 °C 34601.5 hPa Calm     90 % 0 mm
00:07 -10.7 °C -11.6 °C 34601.5 hPa Calm     90 % 0 mm
00:12 -10.7 °C -11.6 °C 0 hPa Calm     90 % 0 mm
00:17 -10.7 °C -11.6 °C 34601.5 hPa Calm     90 % 0 mm
00:22 -10.7 °C -11.6 °C 34601.5 hPa Calm     90 % 0 mm
00:32 -10.7 °C -11.6 °C 34601.5 hPa Calm     90 % 0 mm
00:37 -10.7 °C -11.7 °C 34601.5 hPa Calm     89 % 0 mm
00:47 -10.8 °C -11.8 °C 34601.5 hPa Calm     89 % 0 mm
00:52 -10.9 °C -11.9 °C 34601.5 hPa Calm     89 % 0 mm
00:57 -10.9 °C -11.9 °C 34611.7 hPa Calm     89 % 0 mm
01:02 -11 °C -12 °C 34611.7 hPa Calm     89 % 0 mm
01:07 -11.1 °C -11.9 °C 34611.7 hPa Calm     90 % 0 mm
01:12 -11.1 °C -12 °C 34611.7 hPa Calm     90 % 0 mm
01:17 -11.2 °C -12.1 °C 34611.7 hPa Calm     90 % 0 mm
01:22 -11.2 °C -12.1 °C 34611.7 hPa Calm     90 % 0 mm
01:27 -11.2 °C -12.1 °C 34611.7 hPa Calm     90 % 0 mm
01:32 -11.3 °C -12.1 °C 34611.7 hPa Calm     91 % 0 mm
01:37 -11.3 °C -12.2 °C 34611.7 hPa Calm     90 % 0 mm
01:42 -11.3 °C -12.1 °C 34611.7 hPa Calm     91 % 0 mm
01:47 -11.4 °C -12.2 °C 34611.7 hPa Calm     91 % 0 mm
01:52 -11.4 °C -12.2 °C 34611.7 hPa Calm     91 % 0 mm
01:57 -11.5 °C -12.3 °C 34611.7 hPa Calm     91 % 0 mm
02:02 -11.5 °C -12.2 °C 34611.7 hPa Calm     92 % 0 mm
02:07 -11.5 °C -12.2 °C 34611.7 hPa Calm     92 % 0 mm
02:12 -11.6 °C -12.3 °C 34611.7 hPa Calm     92 % 0 mm
02:17 -11.6 °C -12.3 °C 34625.2 hPa Calm     92 % 0 mm
02:22 -11.5 °C -12.1 °C 34625.2 hPa Calm     93 % 0 mm
02:27 -11.5 °C -12.1 °C 34611.7 hPa Calm     93 % 0 mm
02:32 -11.4 °C -11.9 °C 34611.7 hPa Calm     94 % 0 mm
02:37 -11.3 °C -11.8 °C 34625.2 hPa Calm     94 % 0 mm
02:42 -11.3 °C -11.8 °C 34625.2 hPa Calm     94 % 0 mm
02:47 -11.2 °C -11.7 °C 34625.2 hPa Calm     94 % 0 mm
02:52 -11.2 °C -11.7 °C 34625.2 hPa Calm     94 % 0 mm
02:57 -11.1 °C -11.6 °C 34625.2 hPa Calm     94 % 0 mm
03:02 -11 °C -11.5 °C 34625.2 hPa Calm     94 % 0 mm
03:07 -10.8 °C -11.3 °C 34625.2 hPa NNW 2.6 km/h   94 % 0 mm
03:12 -10.5 °C -11.1 °C 34625.2 hPa WNW 5.1 km/h 10.3 km/h 93 % 0 mm
03:17 -10.4 °C -11.1 °C 34625.2 hPa NNW 10.3 km/h 15.6 km/h 92 % 0 mm
03:22 -10.2 °C -10.9 °C 34625.2 hPa NNW 5.1 km/h 15.6 km/h 92 % 0 mm
03:27 -10.2 °C -10.9 °C 34625.2 hPa NNW 5.1 km/h 15.6 km/h 91 % 0 mm
03:32 -10.1 °C -10.9 °C 34625.2 hPa NNW 5.1 km/h 12.9 km/h 91 % 0 mm
03:37 -10.1 °C -10.8 °C 34625.2 hPa NNW 10.3 km/h 12.9 km/h 91 % 0 mm
03:42 -10.1 °C -10.8 °C 34625.2 hPa NW 5.1 km/h 12.9 km/h 91 % 0 mm
03:47 -10 °C -10.8 °C 34625.2 hPa NNW 2.6 km/h 10.3 km/h 91 % 0 mm
03:52 -9.9 °C -10.7 °C 34625.2 hPa North 7.7 km/h 12.9 km/h 92 % 0 mm
03:57 -9.9 °C -10.7 °C 34625.2 hPa NNW 10.3 km/h 18.2 km/h 92 % 0 mm
04:02 -10 °C -10.7 °C 34625.2 hPa North 2.6 km/h 18.2 km/h 92 % 0 mm
04:07 -10.1 °C -10.8 °C 0 hPa NNW 7.7 km/h 18.2 km/h 92 % 0 mm
04:12 -10.1 °C -10.8 °C 34625.2 hPa North 2.6 km/h 18.2 km/h 92 % 0 mm
04:17 -10.1 °C -10.8 °C 34625.2 hPa NNE 2.6 km/h 18.2 km/h 92 % 0 mm
04:27 -10.1 °C -10.8 °C 34625.2 hPa NNE 7.7 km/h 15.6 km/h 92 % 0 mm
04:32 -10.1 °C -10.8 °C 34625.2 hPa Calm   15.6 km/h 92 % 0 mm
04:42 -10 °C -10.8 °C 34635.4 hPa North 12.9 km/h 15.6 km/h 91 % 0 mm
04:47 -9.9 °C -10.7 °C 34635.4 hPa NNW 7.7 km/h 18.2 km/h 91 % 0 mm
04:52 -9.9 °C -10.7 °C 34625.2 hPa NNW 20.8 km/h 20.8 km/h 91 % 0 mm
Weerstation Almere Buiten
Gegevens verzameld door Weather Underground - 4 mb

Script ontwikkeld door  Jim McMurry - jmcmurry@mwt.net Aangepast voor de template door  Wim van der Kuil - Leuven-Template.eu

U vindt ons ook hier:

Het Weer Aktueel

UK Metoffice

European Weather Network

Weather Underground

AWEKAS